Dewpoint
14 14 15 14 10 12 13 12 12 16 16 14 14 13 12 11 7 -2 3 4 3 6 7 7 9 9 8 9 10 10 10 10 10 9 9 9 9 9 8 8 7 7 8
14 14 14 14 13 11 12 12 11 11 15 16 16 14 12 12 5 -2 4 5 3 8 8 8 8 7 5 3 9 10 10 9 9 10 9 7 8 9 8 8 9 9 9
13 13 13 13 14 11 9 12 12 11 9 13 15 15 14 12 10 0 0 6 1 4 7 7 4 4 1 7 9 9 10 10 10 10 9 8 7 8 10 9 10 10 9
11 12 12 12 12 10 9 11 13 13 13 12 11 12 13 14 12 8 -2 7 3 4 5 5 4 4 2 7 9 9 9 10 9 10 9 10 9 9 9 8 8 7 5
10 11 10 10 10 11 10 10 11 14 14 14 14 14 14 14 14 13 2 4 4 5 6 10 5 5 5 7 8 8 10 9 8 8 7 8 9 8 7 7 6 7 6
9 9 10 7 9 10 11 11 12 14 16 16 16 16 16 16 16 15 7 1 6 6 6 6 6 7 7 8 9 10 10 11 10 8 7 8 9 10 8 8 7 6 6
10 10 12 10 8 10 11 13 16 17 17 17 18 18 18 17 17 15 11 4 7 8 8 8 9 8 10 12 11 10 11 10 10 8 8 8 9 6 7 7 7 8 6
11 11 12 12 13 13 15 16 18 19 19 18 19 19 18 17 17 15 12 8 10 11 10 9 11 10 11 8 9 9 9 9 10 9 9 8 8 8 9 9 9 8 6
12 12 13 13 14 15 16 18 19 19 19 19 18 18 17 17 16 15 12 9 12 12 11 11 12 13 13 11 9 9 9 9 10 10 9 9 9 9 9 8 8 7 6
13 12 13 14 14 15 17 18 19 19 19 18 18 17 17 16 15 14 13 12 12 13 12 11 11 13 12 11 10 9 10 10 9 9 9 10 10 8 6 6 6 7 8
13 14 13 14 15 16 18 19 19 19 18 18 17 16 7 15 15 14 14 15 14 14 13 14 13 13 12 11 10 9 9 9 9 9 9 9 7 5 6 7 7 5 4
15 17 16 17 18 19 19 20 18 18 17 18 17 17 16 15 15 15 15 15 14 14 14 14 13 12 11 8 8 6 7 9 9 8 7 6 5 7 5 4 4 3 2
17 17 18 20 20 20 20 18 17 17 17 17 17 16 16 15 14 14 14 14 14 14 14 14 12 11 10 10 9 10 9 8 6 4 5 6 6 5 5 3 3 1 0
18 19 20 20 20 20 19 17 15 17 17 17 16 15 15 14 14 14 14 14 14 14 13 13 12 11 9 8 7 6 6 6 5 5 4 5 5 5 4 3 1 0 -3
20 20 20 19 19 17 17 16 16 16 16 15 14 14 14 14 14 13 12 11 10 10 10 10 10 9 8 8 8 8 8 7 5 5 5 6 5 4 4 2 -2 -4 -4
17 17 18 17 16 16 15 15 16 15 14 15 14 13 13 14 13 10 9 8 8 8 8 9 9 9 8 8 7 9 8 7 6 6 6 6 4 3 0 -2 -4 -5 -4
15 13 13 14 16 15 16 14 14 14 14 14 14 14 14 13 11 10 9 7 7 8 9 9 9 9 7 7 6 6 6 6 6 6 4 3 3 2 -2 -4 -5 -4 -5
11 9 13 16 16 15 15 15 13 12 14 13 13 12 11 10 8 8 8 8 8 7 4 4 4 5 5 6 5 5 5 4 4 3 3 3 2 -2 -4 -4 -5 -6 -6
13 14 14 14 13 13 12 13 12 12 12 11 11 12 10 8 8 8 7 7 5 5 5 5 4 4 3 3 4 4 4 4 4 2 -3 -3 -3 -4 -4 -5 -5 -6 -5
14 15 15 15 14 13 11 10 9 8 7 7 8 8 6 7 6 6 6 3 4 4 2 2 2 2 2 2 2 2 2 2 -2 -2 -2 -4 -4 -5 -5 -4 -5 -5 -5
12 11 12 12 12 11 11 11 10 8 8 7 4 3 3 3 4 4 4 4 4 3 2 2 2 2 2 1 1 -1 -5 -3 -3 -3 -4 -4 -5 -5 -3 -4 -4 -5 -5
10 10 9 9 9 9 8 9 10 10 9 8 7 6 6 6 5 4 5 5 4 4 4 4 3 2 2 2 1 -2 -3 -4 -3 -4 -4 -4 -5 -4 -3 -4 -4 -5 -5
10 9 9 9 9 9 9 8 8 9 9 8 8 7 7 7 5 5 5 4 4 4 3 3 3 2 1 1 0 -5 -6 -3 -3 -4 -4 -8 -5 -3 -3 -4 -5 -6 -5
7 8 8 9 9 9 8 8 8 8 8 8 8 8 7 7 5 5 5 4 4 4 4 3 3 3 1 -1 -2 -4 -9 -6 -3 -5 -10 -19 -7 -3 -4 -4 -5 -6 -6
10 10 11 8 8 7 6 8 8 8 8 7 7 7 6 7 6 5 5 4 4 4 3 3 3 2 2 -0 -3 -8 -10 -6 -6 -8 -11 -19 -11 -3 -3 -5 -6 -6 -6
8 8 8 7 5 7 8 7 8 8 8 7 7 7 6 6 6 6 5 5 2 1 3 3 3 2 2 1 0 -3 -9 -11 -12 -16 -20 -19 -5 -3 -4 -6 -6 -6 -5
Wind_Speed
44 41 38 36 39 40 40 40 35 31 29 30 28 27 26 24 23 22 18 15 16 15 15 14 13 12 11 17 16 13 11 12 11 12 11 10 13 16 14 16 17 19 22
46 42 40 39 38 41 41 41 40 40 38 34 32 32 30 28 25 26 23 19 19 18 17 19 19 16 15 15 20 17 15 12 13 14 14 15 17 15 16 19 19 18 23
49 46 42 41 41 43 42 41 41 39 43 41 40 39 38 35 30 28 27 21 21 19 19 20 19 18 16 16 15 15 13 12 15 18 20 19 17 14 16 14 17 19 20
50 48 46 45 44 44 44 41 41 41 42 44 43 43 41 39 35 31 29 25 25 23 23 21 21 21 18 16 16 16 14 16 16 15 18 22 22 18 18 20 24 26 27
50 49 48 45 45 45 45 44 40 42 43 43 44 44 43 40 38 34 30 29 27 25 25 27 24 24 21 19 19 18 17 17 17 17 21 26 28 27 23 21 22 24 23
50 48 46 44 46 46 46 45 43 41 42 44 45 43 42 39 38 33 31 33 29 26 26 27 26 25 24 23 22 20 19 22 22 23 27 27 24 22 20 18 19 22 25
54 50 47 45 45 46 46 45 44 42 39 41 41 39 37 36 36 32 32 34 30 27 26 27 28 27 26 26 26 24 23 22 24 25 28 24 19 21 19 22 22 24 29
55 53 50 46 45 42 43 44 43 39 38 37 37 34 32 32 30 28 29 30 29 27 28 26 27 28 29 27 25 24 25 26 26 27 28 23 20 19 19 22 24 28 29
57 54 52 48 46 43 43 43 40 37 36 35 32 29 28 27 23 22 27 30 28 28 29 28 27 29 27 25 24 24 25 28 27 27 27 19 18 19 20 22 25 29 29
55 55 54 51 49 46 44 43 38 36 32 28 24 24 21 23 19 20 21 26 29 31 29 29 30 30 29 23 22 23 27 26 24 24 16 15 17 20 23 20 21 28 29
53 51 51 46 47 46 45 41 35 31 26 28 27 24 11 22 18 20 24 26 26 25 26 27 27 24 20 18 18 19 19 23 20 16 17 19 19 15 12 15 14 15 19
48 37 41 41 43 45 41 36 29 27 27 27 25 25 19 16 19 21 23 21 20 23 25 23 21 20 16 15 15 17 17 15 13 15 19 17 10 10 11 16 20 20 18
38 37 36 38 40 36 33 32 24 28 27 24 20 16 14 14 16 19 20 20 20 21 21 21 17 16 17 16 17 12 10 9 8 10 12 9 12 16 17 18 20 19 21
40 38 38 36 32 29 26 24 25 25 23 22 18 13 12 16 19 17 17 18 20 22 21 17 19 17 16 8 4 6 5 7 9 13 11 9 14 16 19 19 18 21 19
39 37 36 34 31 29 27 23 21 20 19 19 18 13 14 17 16 13 13 13 12 11 12 15 16 12 4 4 6 7 8 11 13 11 10 11 17 20 20 18 15 15 17
29 26 28 27 28 29 27 26 22 17 19 17 15 14 17 15 13 11 10 10 9 9 10 9 7 5 6 9 12 13 13 12 11 10 13 14 16 16 15 12 14 14 17
20 23 27 30 27 25 26 25 26 20 17 19 14 13 13 13 11 11 10 8 7 7 6 5 7 9 9 11 5 7 8 10 8 9 11 12 15 15 12 13 13 16 17
30 33 25 22 20 21 21 19 16 16 21 19 19 17 14 14 12 11 9 8 8 5 3 2 2 5 3 5 6 7 8 9 10 11 12 14 15 9 10 11 14 15 17
18 21 21 21 19 18 17 16 14 18 19 16 18 18 15 13 11 9 9 8 8 5 7 6 5 8 6 6 8 11 14 16 18 18 5 2 4 7 10 10 13 12 16
16 16 19 20 18 17 14 14 16 14 13 12 18 17 15 13 10 9 8 8 11 6 6 8 8 8 10 11 13 15 16 16 7 3 4 5 6 8 8 11 11 14 15
12 16 19 20 19 16 13 18 21 15 14 11 10 12 9 7 6 7 7 7 7 11 10 9 10 11 11 12 8 6 1 1 4 7 9 10 11 7 9 11 9 12 15
11 15 15 14 19 16 17 14 22 26 23 15 12 12 11 9 7 8 9 11 10 7 8 9 9 9 7 7 8 8 7 7 9 11 12 13 8 4 7 6 9 12 13
10 5 4 12 15 19 19 20 17 20 17 21 17 12 13 13 14 13 13 11 13 11 12 8 8 10 10 13 13 11 10 13 10 12 12 10 6 4 5 6 10 13 12
19 21 23 18 23 23 18 14 14 9 6 13 16 17 18 19 15 14 13 12 11 13 12 12 13 12 11 12 12 12 9 11 15 13 9 7 5 4 2 4 9 7 10
16 18 22 14 12 11 11 8 12 14 15 13 13 16 17 19 17 16 15 13 11 15 15 13 14 12 10 9 9 9 9 10 12 13 11 8 5 3 4 7 6 8 10
11 12 10 8 3 12 9 9 10 12 17 13 14 14 14 20 21 20 20 18 10 12 18 18 15 13 12 11 11 10 9 11 12 11 8 7 9 6 2 2 2 5 7
Wind_Direction
217 219 224 225 221 221 223 225 223 215 220 223 233 236 238 244 238 228 222 227 220 221 229 229 226 223 230 223 226 228 240 255 267 271 282 288 296 295 292 298 297 300 298
221 221 224 228 226 225 224 226 226 222 224 228 231 237 240 241 238 230 225 227 225 225 230 229 232 235 239 222 224 237 251 239 251 268 275 279 280 283 289 291 295 288 289
221 222 225 227 226 229 227 228 227 225 225 229 233 237 242 244 242 237 230 230 227 236 234 230 234 231 227 218 216 222 237 247 254 262 271 275 274 276 288 291 284 283 293
220 223 225 227 228 229 232 230 230 230 228 231 236 240 244 246 246 244 233 233 229 233 238 240 240 240 234 225 227 240 245 248 255 272 284 283 274 267 272 287 288 293 300
217 221 225 228 229 230 231 236 231 231 234 237 239 242 245 247 249 244 238 235 232 232 235 239 243 241 236 234 237 239 248 257 266 284 298 301 285 276 276 285 295 302 302
218 222 223 226 228 229 231 233 236 233 232 237 238 241 245 248 247 249 242 236 236 235 237 241 243 243 241 236 240 248 258 261 264 277 302 306 296 286 289 291 297 306 307
216 220 222 225 226 228 231 233 234 234 234 236 239 240 245 249 251 253 246 238 240 241 243 244 245 244 240 240 248 255 256 263 265 285 301 303 289 301 292 297 302 308 309
218 218 220 224 224 226 229 231 231 232 234 234 237 244 250 253 254 252 247 241 242 245 248 249 253 248 246 251 259 268 269 273 277 286 297 295 288 289 286 292 299 302 303
216 219 222 222 223 223 225 226 226 227 227 233 242 244 251 253 254 246 239 241 241 246 248 249 256 254 250 254 263 268 276 276 278 290 296 280 278 288 297 294 295 294 293
216 220 220 222 223 223 221 221 219 224 226 233 237 241 249 260 257 249 243 237 237 244 248 245 258 253 258 257 267 272 276 279 286 291 278 281 287 296 297 291 298 296 297
217 217 217 220 221 220 216 216 215 219 220 228 224 228 244 246 243 243 241 243 243 243 253 261 261 256 258 261 266 271 279 285 283 278 279 284 294 294 298 298 292 300 308
211 209 209 212 211 210 208 206 220 221 219 214 221 226 228 226 238 243 247 252 248 248 256 260 255 245 239 248 260 272 279 271 280 289 290 292 277 298 288 292 294 305 307
198 202 200 196 197 193 196 210 205 202 206 212 215 222 234 241 238 239 239 244 245 247 249 250 242 247 248 259 277 274 273 285 283 320 324 305 312 300 292 296 297 297 299
186 187 183 181 177 185 196 194 185 191 201 205 203 211 221 229 230 238 241 243 241 243 243 241 240 246 269 253 266 276 250 276 298 302 297 297 289 290 298 303 305 310 314
175 177 175 179 184 181 179 179 186 192 197 205 194 190 211 228 237 220 220 226 229 232 229 235 246 243 231 293 294 286 262 295 300 298 278 278 287 294 304 308 315 319 320
195 199 195 183 180 180 183 175 173 183 182 189 205 199 205 215 210 197 208 212 218 222 223 219 218 247 289 300 297 275 271 275 282 274 277 273 284 302 317 320 319 318 322
195 188 179 176 180 178 178 178 171 168 185 184 183 203 188 202 197 199 202 203 198 199 201 224 250 269 271 285 267 265 264 259 258 244 254 273 294 305 311 316 317 327 326
168 176 175 170 171 172 167 178 177 169 186 181 180 186 180 194 200 199 196 185 180 182 190 179 182 245 193 200 193 212 214 221 224 246 270 283 290 296 309 307 324 327 329
152 156 155 151 154 155 158 175 169 185 182 182 188 195 204 199 188 186 182 177 172 160 184 210 181 211 230 218 232 241 253 262 272 289 292 358 318 305 299 310 325 320 334
132 140 150 159 156 159 154 146 164 178 166 187 204 204 196 181 179 180 183 184 176 186 193 218 235 249 256 265 273 277 279 284 275 283 279 296 286 294 299 323 315 334 340
142 152 167 162 169 159 167 191 194 190 182 165 165 162 151 141 172 184 164 171 176 204 230 256 273 275 281 287 284 298 340 173 272 252 255 261 274 287 325 327 325 342 342
152 154 172 169 172 176 175 202 206 194 182 189 199 183 176 173 169 177 199 194 203 224 238 270 288 289 259 260 251 260 269 236 252 264 272 283 269 280 328 313 339 337 338
143 121 123 182 189 192 196 191 174 182 191 194 198 209 213 204 177 198 205 216 228 269 280 258 291 303 276 267 275 279 241 231 248 260 280 290 230 261 333 324 342 337 339
247 214 212 220 191 196 204 208 225 209 231 212 215 218 220 210 194 206 208 217 257 260 248 264 281 300 297 279 284 288 251 241 249 273 280 292 241 273 270 311 328 343 355
225 196 187 193 201 214 218 184 172 190 215 220 212 211 206 209 200 208 221 229 250 245 240 256 273 285 297 310 304 288 249 253 265 274 282 277 234 254 325 329 314 355 358
170 178 181 162 177 196 192 189 200 198 206 207 213 219 214 202 212 222 213 229 230 240 238 242 256 265 276 302 328 322 267 260 269 273 268 244 207 232 317 263 312 357 356
Height
1486 1492 1498 1503 1510 1515 1519 1524 1529 1534 1535 1537 1539 1542 1545 1547 1549 1550 1552 1553 1552 1554 1557 1558 1558 1559 1560 1561 1562 1563 1563 1564 1563 1564 1563 1564 1563 1563 1562 1561 1560 1559 1558
1477 1484 1490 1496 1502 1507 1511 1516 1522 1526 1528 1530 1534 1537 1539 1540 1542 1545 1547 1549 1550 1550 1552 1553 1554 1555 1556 1557 1559 1560 1560 1560 1560 1559 1558 1558 1558 1558 1557 1556 1555 1553 1552
1469 1476 1482 1488 1493 1497 1503 1508 1513 1518 1521 1524 1526 1528 1531 1533 1537 1539 1542 1544 1546 1547 1548 1550 1551 1551 1551 1552 1553 1555 1555 1556 1556 1555 1554 1553 1552 1552 1551 1550 1549 1548 1547
1459 1465 1472 1478 1483 1489 1494 1500 1505 1509 1513 1516 1518 1521 1524 1527 1530 1532 1536 1539 1540 1542 1545 1545 1546 1546 1547 1548 1549 1549 1550 1551 1551 1552 1551 1549 1548 1546 1544 1543 1542 1541 1539
1451 1456 1460 1469 1475 1481 1486 1490 1498 1501 1505 1508 1511 1514 1518 1521 1524 1527 1532 1534 1536 1537 1538 1540 1541 1541 1542 1542 1544 1544 1545 1546 1546 1545 1544 1542 1540 1539 1538 1537 1535 1533 1533
1443 1447 1453 1460 1466 1471 1477 1483 1488 1494 1499 1501 1503 1508 1512 1517 1520 1523 1526 1528 1530 1531 1533 1534 1535 1537 1538 1538 1538 1540 1541 1540 1540 1541 1539 1536 1533 1533 1533 1530 1528 1527 1525
1435 1441 1446 1451 1456 1462 1469 1475 1479 1485 1491 1494 1499 1505 1509 1513 1514 1516 1520 1523 1526 1527 1527 1529 1530 1531 1532 1533 1535 1536 1536 1536 1536 1535 1532 1530 1529 1528 1527 1525 1523 1521 1518
1426 1432 1438 1443 1449 1456 1462 1467 1474 1481 1485 1490 1495 1500 1503 1504 1508 1511 1514 1516 1519 1521 1522 1523 1525 1526 1528 1530 1532 1533 1532 1530 1530 1529 1526 1524 1523 1522 1521 1519 1518 1515 1513
1418 1423 1429 1436 1442 1449 1455 1461 1468 1475 1480 1485 1489 1493 1496 1497 1500 1503 1508 1510 1512 1514 1516 1519 1520 1521 1522 1524 1526 1526 1526 1525 1524 1523 1519 1517 1517 1517 1516 1514 1512 1510 1507
1411 1415 1421 1428 1435 1441 1448 1454 1462 1467 1473 1479 1484 1487 1492 1495 1496 1497 1500 1501 1503 1509 1512 1513 1514 1514 1516 1518 1518 1519 1519 1518 1517 1516 1515 1512 1512 1512 1511 1509 1507 1504 1502
1407 1412 1418 1424 1429 1435 1441 1449 1457 1463 1469 1472 1475 1478 1473 1481 1489 1493 1496 1498 1500 1502 1504 1506 1506 1507 1510 1513 1514 1513 1512 1512 1510 1510 1509 1508 1508 1506 1506 1504 1502 1501 1499
1403 1411 1414 1418 1423 1428 1436 1446 1454 1457 1461 1467 1473 1476 1477 1478 1484 1488 1491 1493 1494 1497 1498 1499 1499 1501 1504 1506 1506 1507 1506 1505 1506 1506 1505 1503 1502 1501 1502 1500 1498 1496 1494
1398 1406 1411 1415 1418 1426 1434 1441 1447 1453 1458 1465 1471 1476 1479 1481 1482 1485 1486 1488 1489 1490 1492 1495 1496 1497 1498 1500 1501 1500 1501 1502 1503 1500 1501 1499 1499 1499 1497 1496 1493 1491 1489
1392 1400 1405 1411 1419 1425 1431 1437 1443 1450 1456 1460 1463 1470 1475 1480 1480 1482 1484 1484 1485 1485 1487 1489 1492 1494 1496 1496 1495 1497 1498 1498 1497 1496 1496 1495 1495 1494 1493 1491 1488 1486 1483
1390 1397 1403 1410 1415 1421 1429 1436 1441 1448 1454 1459 1458 1459 1467 1474 1476 1472 1474 1481 1483 1484 1486 1488 1490 1490 1490 1490 1492 1493 1493 1494 1493 1493 1492 1492 1491 1490 1488 1487 1484 1482 1480
1391 1398 1402 1409 1414 1420 1427 1431 1438 1444 1446 1454 1462 1456 1459 1470 1473 1473 1477 1478 1481 1482 1483 1485 1486 1486 1486 1486 1487 1488 1489 1489 1489 1490 1489 1488 1487 1486 1484 1483 1481 1479 1476
1393 1402 1404 1408 1416 1420 1427 1430 1431 1439 1450 1452 1456 1463 1460 1467 1471 1472 1475 1476 1478 1481 1482 1483 1483 1484 1483 1483 1483 1485 1485 1486 1486 1486 1485 1484 1483 1482 1481 1480 1478 1475 1473
1395 1399 1403 1411 1416 1425 1428 1436 1437 1436 1451 1453 1454 1460 1461 1467 1468 1470 1472 1473 1476 1478 1481 1482 1481 1481 1480 1480 1481 1482 1482 1482 1482 1483 1482 1481 1480 1479 1478 1477 1475 1472 1469
1396 1402 1403 1412 1418 1424 1427 1435 1437 1447 1448 1451 1453 1458 1463 1464 1465 1468 1470 1472 1474 1476 1478 1480 1479 1480 1478 1477 1478 1479 1480 1480 1479 1479 1478 1478 1477 1477 1475 1474 1472 1470 1467
1402 1404 1408 1414 1421 1424 1427 1430 1441 1447 1447 1450 1453 1458 1460 1461 1462 1465 1468 1470 1473 1475 1476 1477 1476 1478 1477 1476 1476 1476 1476 1475 1475 1476 1476 1476 1475 1474 1474 1472 1470 1467 1464
1412 1413 1416 1420 1423 1423 1426 1433 1439 1443 1444 1448 1452 1455 1458 1459 1461 1463 1464 1466 1470 1472 1472 1474 1475 1474 1473 1473 1473 1473 1473 1473 1473 1474 1474 1473 1473 1473 1471 1470 1468 1465 1462
1413 1418 1420 1419 1421 1427 1433 1437 1434 1438 1442 1446 1451 1453 1455 1458 1459 1460 1463 1465 1468 1466 1467 1469 1471 1471 1470 1471 1471 1471 1471 1471 1471 1471 1471 1471 1471 1470 1469 1467 1465 1463 1460
1409 1416 1422 1423 1422 1430 1430 1432 1435 1438 1439 1445 1449 1451 1453 1455 1456 1458 1458 1460 1467 1464 1463 1464 1467 1467 1467 1468 1468 1467 1467 1467 1467 1468 1469 1468 1468 1468 1466 1465 1463 1461 1459
1414 1417 1422 1423 1422 1427 1430 1430 1433 1437 1439 1442 1444 1447 1450 1452 1453 1457 1457 1460 1463 1460 1460 1461 1464 1464 1464 1464 1464 1463 1464 1464 1465 1466 1466 1465 1466 1465 1464 1463 1462 1459 1457
1417 1416 1417 1421 1423 1425 1426 1427 1431 1435 1438 1439 1441 1444 1446 1448 1450 1452 1453 1458 1458 1458 1457 1459 1460 1461 1461 1461 1461 1460 1460 1461 1462 1462 1462 1463 1463 1463 1461 1460 1460 1458 1456
1417 1418 1418 1419 1421 1423 1424 1427 1429 1430 1433 1435 1437 1440 1441 1442 1447 1448 1447 1452 1454 1455 1454 1455 1456 1456 1457 1458 1458 1457 1457 1458 1459 1459 1459 1459 1460 1460 1459 1459 1458 1457 1456